GFSCGP_prec_pwat_000.txt.gz
Precipitable_Water
0.40 0.31 0.27 0.32 0.39 0.50 0.53 0.54 0.66 0.69 0.79 0.69 0.69 0.71 0.81 0.80 0.83 0.90 0.94 0.93 0.98 0.98 1.17 1.20 1.28 1.38 1.37 1.41 1.31 1.48 1.42 1.55 1.41 1.45 1.42 1.44 1.45 1.54 1.55 1.62 1.63 1.70 1.71 1.60
0.32 0.25 0.32 0.36 0.41 0.38 0.42 0.43 0.47 0.63 0.67 0.64 0.78 0.82 0.97 0.83 0.74 0.84 0.94 0.93 0.95 1.03 0.98 0.93 1.06 1.15 1.24 1.45 1.39 1.25 1.24 1.28 1.42 1.51 1.44 1.38 1.29 1.29 1.24 1.31 1.36 1.46 1.53 1.44
0.27 0.27 0.33 0.34 0.32 0.32 0.37 0.33 0.38 0.54 0.60 0.61 0.56 0.73 0.82 1.00 0.82 0.86 0.88 0.95 0.98 0.96 0.95 0.94 1.00 1.08 1.23 1.20 1.23 1.21 1.30 1.34 1.35 1.40 1.34 1.41 1.33 1.17 1.16 1.36 1.43 1.39 1.25 1.16
0.28 0.33 0.33 0.32 0.29 0.28 0.27 0.32 0.33 0.35 0.45 0.40 0.56 0.44 0.70 0.89 0.82 0.85 0.88 0.81 0.92 0.93 1.00 1.05 1.04 1.09 1.18 1.15 1.26 1.29 1.29 1.33 1.37 1.24 1.16 1.02 0.80 0.67 0.98 1.08 1.13 1.04 0.94 0.88
0.21 0.27 0.28 0.29 0.31 0.31 0.27 0.31 0.29 0.33 0.32 0.34 0.44 0.50 0.64 0.88 0.73 0.75 0.87 0.86 0.87 0.96 0.99 1.01 1.08 1.08 1.22 1.24 1.26 1.34 1.36 1.31 1.21 0.98 0.84 0.74 0.71 0.87 0.91 0.93 0.85 0.80 0.93 1.00
0.25 0.26 0.24 0.24 0.27 0.29 0.30 0.42 0.37 0.33 0.31 0.28 0.37 0.47 0.58 0.77 0.89 0.78 0.88 0.98 0.95 0.94 1.00 1.02 1.09 1.14 1.18 1.27 1.27 1.36 1.33 1.13 0.95 0.98 0.97 0.85 0.74 0.67 0.64 0.80 0.84 0.96 1.00 0.99
0.22 0.25 0.30 0.29 0.28 0.33 0.33 0.39 0.34 0.32 0.33 0.31 0.41 0.43 0.58 0.68 0.80 0.83 0.87 0.96 0.94 0.89 1.00 1.04 1.08 1.09 1.17 1.24 1.27 1.39 1.24 1.05 0.96 0.96 1.01 0.92 0.84 0.78 0.78 0.85 0.88 0.86 0.84 0.96
0.20 0.20 0.30 0.29 0.30 0.33 0.33 0.36 0.32 0.29 0.32 0.35 0.47 0.42 0.48 0.59 0.71 0.90 0.94 1.09 0.94 0.88 0.94 1.06 1.16 1.17 1.23 1.34 1.35 1.36 1.20 1.00 0.99 1.03 1.04 1.04 0.96 0.89 0.90 0.95 0.91 0.80 0.80 0.91
0.22 0.27 0.38 0.31 0.35 0.36 0.35 0.31 0.39 0.36 0.35 0.30 0.39 0.43 0.48 0.48 0.49 0.47 0.59 0.58 0.88 0.95 0.99 1.03 1.13 1.25 1.30 1.40 1.48 1.36 1.27 1.07 1.02 1.08 1.17 1.16 1.10 0.95 0.79 0.84 0.84 0.82 1.01 0.98
0.31 0.31 0.34 0.33 0.36 0.37 0.36 0.42 0.31 0.32 0.26 0.28 0.33 0.35 0.37 0.49 0.52 0.53 0.48 0.41 0.59 0.97 1.07 1.07 1.17 1.30 1.39 1.47 1.54 1.51 1.33 1.15 1.06 1.14 1.22 1.21 1.05 1.01 0.99 0.86 0.81 0.87 0.92 0.97
0.37 0.36 0.36 0.35 0.32 0.31 0.35 0.37 0.35 0.34 0.31 0.26 0.30 0.39 0.55 0.56 0.55 0.53 0.56 0.58 0.53 0.60 1.01 1.13 1.18 1.34 1.46 1.54 1.56 1.51 1.32 1.19 1.14 1.13 1.22 1.17 0.98 0.99 1.04 0.95 0.87 0.92 1.01 1.04
0.35 0.36 0.34 0.37 0.40 0.38 0.37 0.38 0.43 0.35 0.35 0.41 0.43 0.38 0.53 0.51 0.52 0.52 0.55 0.54 0.58 0.61 0.77 1.21 1.21 1.35 1.46 1.50 1.53 1.46 1.31 1.19 1.16 1.19 1.24 1.21 1.10 1.02 0.99 0.95 0.91 0.96 0.97 1.02
0.34 0.33 0.30 0.36 0.39 0.39 0.35 0.40 0.38 0.38 0.39 0.36 0.37 0.38 0.54 0.53 0.53 0.58 0.59 0.62 0.66 0.69 0.84 1.12 1.06 1.12 1.33 1.38 1.43 1.34 1.27 1.22 1.21 1.23 1.26 1.27 1.12 1.07 1.02 0.97 0.95 0.95 0.97 0.97
0.39 0.30 0.29 0.28 0.36 0.41 0.37 0.36 0.33 0.36 0.36 0.38 0.42 0.48 0.62 0.59 0.62 0.69 0.73 0.69 0.66 0.73 0.81 0.98 1.00 1.09 1.20 1.27 1.27 1.26 1.21 1.19 1.21 1.26 1.33 1.24 1.15 1.10 1.06 1.02 1.01 0.98 1.04 1.05
0.35 0.32 0.32 0.31 0.33 0.36 0.40 0.42 0.38 0.33 0.36 0.38 0.44 0.55 0.63 0.75 0.78 0.75 0.74 0.68 0.58 0.59 0.77 0.98 1.04 1.09 1.25 1.30 1.29 1.28 1.22 1.19 1.22 1.23 1.28 1.15 1.15 1.15 1.10 0.99 0.99 1.00 1.03 1.10
0.36 0.31 0.35 0.33 0.35 0.33 0.31 0.33 0.43 0.41 0.35 0.31 0.40 0.46 0.59 0.68 0.73 0.70 0.66 0.66 0.59 0.52 0.52 0.76 1.17 1.19 1.29 1.32 1.31 1.34 1.24 1.24 1.26 1.25 1.17 1.16 1.14 1.10 1.02 1.01 1.04 1.05 1.08 1.08
0.37 0.32 0.30 0.30 0.36 0.36 0.31 0.33 0.33 0.38 0.42 0.42 0.40 0.48 0.60 0.65 0.66 0.64 0.62 0.66 0.60 0.49 0.52 0.57 0.84 1.22 1.44 1.38 1.37 1.30 1.30 1.37 1.26 1.18 1.13 1.10 1.07 0.96 0.97 1.00 0.99 1.03 1.07 1.08
0.48 0.40 0.35 0.30 0.36 0.33 0.36 0.45 0.41 0.38 0.44 0.48 0.50 0.54 0.71 0.65 0.65 0.60 0.64 0.61 0.49 0.54 0.57 0.61 0.80 1.10 1.33 1.43 1.41 1.40 1.39 1.36 1.24 1.17 1.12 1.05 0.96 0.95 1.01 1.02 1.03 1.14 1.12 1.05
0.73 0.59 0.46 0.36 0.32 0.39 0.49 0.51 0.52 0.55 0.52 0.54 0.51 0.58 0.66 0.74 0.70 0.67 0.68 0.59 0.63 0.68 0.67 0.64 0.71 0.96 1.33 1.37 1.37 1.36 1.35 1.31 1.15 1.14 1.00 0.94 0.95 0.97 1.03 1.08 1.18 1.24 1.22 1.13
0.67 0.69 0.69 0.59 0.40 0.32 0.45 0.58 0.68 0.69 0.44 0.67 0.69 0.68 0.67 0.71 0.61 0.72 0.74 0.72 0.79 0.80 0.82 0.76 0.81 1.02 1.28 1.34 1.40 1.36 1.24 1.14 1.10 0.96 0.92 0.96 1.01 1.08 1.11 1.19 1.30 1.34 1.24 1.17
0.48 0.51 0.45 0.38 0.31 0.33 0.50 0.63 0.67 0.53 0.58 0.76 0.77 0.78 0.77 0.70 0.74 0.74 0.79 0.77 0.79 0.82 0.83 0.83 0.91 1.06 1.26 1.39 1.39 1.18 1.14 1.03 0.97 1.00 1.03 1.11 1.18 1.23 1.23 1.26 1.33 1.31 1.17 1.07
0.43 0.46 0.37 0.37 0.32 0.30 0.50 0.70 0.62 0.84 0.85 0.88 0.84 0.84 0.83 0.83 0.80 0.72 0.59 0.80 0.88 0.89 0.90 0.93 0.99 1.14 1.25 1.31 1.26 1.06 0.99 1.04 1.11 1.10 1.15 1.22 1.27 1.31 1.33 1.30 1.27 1.17 1.13 1.14
0.52 0.52 0.55 0.75 0.66 0.86 0.82 0.82 0.90 0.96 0.88 0.86 0.84 0.85 0.84 0.79 0.73 0.66 0.57 0.49 0.91 1.00 1.03 1.03 1.04 1.13 1.15 1.13 1.10 1.09 1.16 1.23 1.25 1.28 1.29 1.30 1.31 1.27 1.23 1.19 1.15 1.15 1.17 1.14
0.74 0.80 0.65 0.65 0.75 0.87 1.00 0.86 0.82 0.84 0.83 0.80 0.81 0.82 0.81 0.76 0.70 0.61 0.58 0.58 0.99 1.10 1.16 1.15 1.15 1.11 1.08 1.23 1.29 1.33 1.39 1.36 1.32 1.24 1.24 1.20 1.15 1.21 1.24 1.17 1.13 1.10 1.13 1.10
0.83 0.71 0.71 0.68 0.84 0.98 0.89 0.83 0.82 0.82 0.84 0.82 0.83 0.79 0.77 0.74 0.70 0.69 0.66 0.86 1.13 1.22 1.29 1.23 1.34 1.28 1.26 1.59 1.42 1.23 1.63 1.27 1.18 1.23 1.19 1.21 1.24 1.17 1.02 1.13 1.49 1.23 0.91 0.90
0.66 0.72 0.77 0.71 0.72 0.86 0.82 0.80 0.73 0.73 0.73 0.74 0.73 0.68 0.67 0.72 0.72 0.88 1.04 1.18 1.23 1.23 1.28 1.21 1.26 1.28 1.29 1.37 1.46 1.32 1.09 1.18 1.18 1.12 1.14 1.15 1.06 0.97 1.02 0.98 0.91 0.91 0.92 0.97

GFSCGP_prec_pwat_006.txt.gz
Precipitable_Water
0.31 0.29 0.28 0.33 0.38 0.39 0.41 0.49 0.54 0.59 0.68 0.73 0.69 0.74 0.82 0.87 0.86 0.83 0.77 0.84 0.90 0.94 1.04 1.07 1.14 1.14 1.14 1.14 1.18 1.23 1.21 1.28 1.27 1.19 1.16 1.22 1.19 1.29 1.35 1.38 1.44 1.46 1.55 1.57
0.23 0.23 0.32 0.36 0.41 0.40 0.43 0.42 0.56 0.65 0.71 0.67 0.74 0.73 0.85 0.89 0.70 0.82 0.90 0.92 0.95 1.03 1.07 1.06 1.07 1.08 1.06 1.09 1.12 1.14 1.08 1.13 1.17 1.17 1.13 1.09 1.06 1.05 1.15 1.24 1.25 1.34 1.39 1.44
0.19 0.20 0.35 0.34 0.39 0.41 0.42 0.42 0.51 0.54 0.68 0.72 0.75 0.74 0.82 0.90 1.00 1.10 1.11 1.03 1.00 0.94 0.99 1.06 1.09 1.05 1.02 1.07 1.03 1.03 1.12 1.16 1.21 1.20 1.15 1.15 1.14 1.07 1.00 1.04 1.16 1.29 1.23 1.10
0.21 0.23 0.31 0.35 0.34 0.40 0.37 0.42 0.44 0.47 0.58 0.55 0.71 0.50 0.69 0.77 0.84 0.99 1.05 1.11 1.07 0.96 1.00 1.08 1.08 1.04 1.02 1.09 1.14 1.14 1.16 1.15 1.19 1.23 1.09 1.06 0.97 0.86 0.84 0.97 1.12 1.05 0.96 0.89
0.16 0.19 0.27 0.30 0.33 0.39 0.36 0.39 0.38 0.42 0.51 0.55 0.58 0.54 0.55 0.76 0.71 0.76 0.93 1.03 1.10 1.16 1.13 1.06 1.07 1.01 1.04 1.15 1.15 1.15 1.10 1.16 1.22 1.22 1.07 1.05 0.98 0.91 0.95 0.94 0.86 0.84 0.86 0.87
0.17 0.22 0.29 0.30 0.37 0.37 0.38 0.35 0.33 0.42 0.45 0.43 0.50 0.51 0.50 0.57 0.58 0.67 0.85 1.01 1.09 1.14 1.17 1.17 1.21 1.17 0.98 1.16 1.16 1.19 1.08 1.14 1.26 1.18 1.13 0.97 0.81 0.82 0.91 0.92 0.82 0.77 0.73 0.77
0.18 0.19 0.23 0.31 0.30 0.33 0.34 0.31 0.24 0.23 0.29 0.26 0.39 0.43 0.41 0.56 0.63 0.65 0.73 0.85 0.96 1.04 1.10 1.12 1.15 1.09 1.12 1.14 1.18 1.21 1.14 1.13 1.21 1.15 1.08 0.84 0.79 0.74 0.79 0.89 0.88 0.77 0.69 0.80
0.15 0.15 0.21 0.30 0.29 0.27 0.27 0.28 0.22 0.18 0.20 0.23 0.32 0.27 0.32 0.47 0.57 0.69 0.79 0.84 0.91 0.92 1.00 1.04 1.15 1.21 1.21 1.23 1.24 1.21 1.12 1.17 1.20 1.12 1.08 0.92 0.97 0.91 0.84 0.93 0.94 0.90 0.89 0.84
0.17 0.17 0.25 0.29 0.29 0.27 0.25 0.24 0.29 0.22 0.29 0.29 0.31 0.36 0.43 0.52 0.60 0.70 0.75 0.84 0.83 0.91 1.00 1.04 1.09 1.16 1.23 1.28 1.29 1.28 1.16 1.17 1.22 1.18 1.00 1.00 1.04 0.99 0.93 1.08 1.14 1.03 1.04 0.92
0.20 0.16 0.24 0.26 0.28 0.28 0.25 0.26 0.22 0.24 0.22 0.24 0.31 0.34 0.35 0.51 0.57 0.67 0.70 0.72 0.76 0.91 0.98 1.01 1.01 0.98 1.14 1.17 1.29 1.41 1.35 1.20 1.25 1.25 1.07 1.09 1.10 1.04 1.03 1.09 1.09 1.02 1.01 0.97
0.21 0.20 0.19 0.28 0.25 0.24 0.28 0.25 0.28 0.30 0.31 0.27 0.27 0.31 0.45 0.53 0.59 0.64 0.69 0.70 0.76 0.82 0.88 0.93 0.96 1.04 1.10 1.20 1.27 1.37 1.44 1.38 1.39 1.38 1.23 1.25 1.24 1.12 1.09 1.06 1.02 0.95 1.02 1.02
0.22 0.22 0.19 0.23 0.30 0.32 0.33 0.28 0.32 0.28 0.27 0.30 0.31 0.31 0.53 0.56 0.61 0.64 0.65 0.70 0.70 0.79 0.88 0.91 0.94 0.97 1.07 1.14 1.24 1.31 1.42 1.41 1.47 1.51 1.33 1.31 1.34 1.17 1.10 1.10 1.09 1.04 1.03 1.03
0.24 0.22 0.19 0.23 0.28 0.34 0.31 0.34 0.36 0.37 0.36 0.30 0.28 0.32 0.53 0.56 0.55 0.59 0.61 0.63 0.64 0.69 0.77 0.82 0.93 1.00 1.02 1.04 1.17 1.25 1.32 1.37 1.50 1.55 1.50 1.34 1.36 1.25 1.09 1.07 1.10 1.08 1.03 0.95
0.31 0.22 0.21 0.20 0.26 0.33 0.30 0.34 0.38 0.37 0.30 0.32 0.32 0.35 0.47 0.51 0.54 0.56 0.56 0.61 0.65 0.64 0.70 0.82 0.89 0.94 0.96 0.97 1.08 1.26 1.26 1.37 1.46 1.50 1.40 1.31 1.28 1.24 1.18 1.08 1.09 1.02 1.01 0.96
0.31 0.22 0.26 0.28 0.33 0.36 0.34 0.33 0.35 0.35 0.35 0.34 0.36 0.36 0.44 0.49 0.50 0.53 0.60 0.65 0.67 0.69 0.77 0.83 0.87 0.95 0.99 1.04 1.07 1.24 1.42 1.39 1.46 1.43 1.48 1.43 1.36 1.34 1.27 1.14 1.06 1.02 0.97 0.98
0.34 0.26 0.27 0.29 0.35 0.37 0.35 0.36 0.38 0.39 0.40 0.43 0.42 0.39 0.49 0.54 0.58 0.61 0.62 0.65 0.64 0.74 0.80 0.90 0.90 0.98 0.97 1.06 1.15 1.19 1.26 1.46 1.58 1.53 1.43 1.50 1.51 1.46 1.39 1.20 1.04 0.99 0.91 0.99
0.34 0.31 0.28 0.28 0.34 0.34 0.34 0.38 0.41 0.42 0.47 0.46 0.40 0.42 0.50 0.53 0.57 0.60 0.64 0.67 0.69 0.72 0.71 0.74 0.85 0.92 1.05 1.18 1.25 1.23 1.35 1.55 1.52 1.50 1.53 1.59 1.51 1.50 1.36 1.18 1.02 0.93 0.92 1.01
0.39 0.32 0.32 0.31 0.33 0.26 0.37 0.47 0.50 0.48 0.52 0.55 0.50 0.47 0.47 0.52 0.63 0.68 0.71 0.68 0.69 0.71 0.69 0.64 0.61 0.70 0.87 1.02 1.17 1.25 1.32 1.43 1.62 1.57 1.64 1.50 1.49 1.44 1.30 1.13 0.97 0.97 1.00 1.02
0.55 0.38 0.35 0.29 0.30 0.33 0.37 0.48 0.49 0.50 0.51 0.60 0.54 0.53 0.54 0.60 0.65 0.66 0.72 0.74 0.70 0.72 0.73 0.73 0.73 0.73 0.71 0.88 1.02 1.12 1.22 1.41 1.47 1.43 1.39 1.42 1.41 1.37 1.20 1.04 0.96 1.00 1.09 1.20
0.55 0.54 0.38 0.38 0.28 0.26 0.45 0.58 0.64 0.56 0.45 0.66 0.67 0.60 0.61 0.64 0.52 0.60 0.71 0.72 0.76 0.84 0.86 0.82 0.77 0.75 0.75 0.85 0.96 0.98 1.04 1.24 1.29 1.36 1.41 1.41 1.37 1.31 1.14 1.03 1.03 1.13 1.28 1.43
0.52 0.49 0.42 0.40 0.36 0.42 0.60 0.65 0.60 0.37 0.49 0.69 0.69 0.71 0.73 0.66 0.76 0.85 0.89 0.88 0.92 0.92 0.85 0.88 0.85 0.78 0.77 0.89 0.93 0.97 1.08 1.22 1.32 1.43 1.42 1.43 1.44 1.31 1.24 1.19 1.23 1.31 1.43 1.42
0.56 0.58 0.55 0.51 0.41 0.38 0.73 0.68 0.51 0.66 0.74 0.75 0.77 0.80 0.77 0.85 0.88 0.86 0.86 0.85 0.83 0.91 0.99 0.97 0.90 0.89 0.90 0.89 0.96 1.02 1.16 1.31 1.41 1.47 1.46 1.42 1.50 1.56 1.61 1.41 1.44 1.48 1.40 1.27
0.58 0.71 0.67 0.70 0.66 0.84 0.87 0.82 0.86 0.85 0.80 0.81 0.86 0.86 0.84 0.85 0.86 0.92 0.89 0.90 0.93 0.86 0.74 0.91 0.96 0.95 1.03 0.99 1.08 1.08 1.31 1.38 1.42 1.41 1.39 1.36 1.32 1.43 1.58 1.59 1.36 1.26 1.21 1.17
0.68 0.85 0.72 0.78 0.87 0.90 0.90 0.91 0.96 0.95 0.91 0.93 0.94 0.97 0.92 0.87 0.90 0.86 0.88 0.88 0.89 0.89 0.83 0.86 1.02 0.99 1.01 1.17 1.25 1.29 1.39 1.48 1.43 1.43 1.42 1.35 1.24 1.28 1.36 1.36 1.32 1.24 1.18 1.06
0.72 0.84 0.74 0.80 0.84 0.90 0.94 0.99 0.93 0.95 0.95 0.97 0.99 1.01 0.97 0.95 0.99 0.99 0.95 1.01 1.01 0.99 0.99 1.03 1.02 0.98 1.11 1.34 1.45 1.49 1.46 1.48 1.42 1.34 1.24 1.19 1.14 1.14 1.17 1.16 1.19 1.12 1.05 0.95
0.80 0.82 0.74 0.67 0.82 0.78 0.83 0.88 0.92 0.84 0.87 0.89 0.89 0.86 0.86 0.87 0.90 1.02 0.95 1.06 1.10 1.03 1.04 1.11 1.25 1.28 1.34 1.46 1.48 1.44 1.39 1.31 1.29 1.20 1.15 1.11 1.11 1.13 1.10 1.05 1.00 1.02 0.98 0.99

GFSCGP_prec_pwat_009.txt.gz
Precipitable_Water
0.33 0.32 0.31 0.37 0.44 0.42 0.62 0.56 0.55 0.60 0.73 0.73 0.71 0.72 0.79 0.91 0.79 0.71 0.69 0.74 0.79 0.83 0.97 1.09 1.17 1.26 1.28 1.25 1.24 1.25 1.30 1.32 1.32 1.31 1.31 1.29 1.27 1.37 1.40 1.47 1.52 1.52 1.47 1.46
0.28 0.27 0.35 0.41 0.45 0.45 0.50 0.44 0.55 0.63 0.71 0.72 0.74 0.71 0.81 0.89 0.71 0.73 0.77 0.76 0.80 0.90 0.93 0.99 1.06 1.18 1.18 1.15 1.16 1.19 1.20 1.22 1.20 1.13 1.17 1.20 1.17 1.16 1.17 1.28 1.30 1.29 1.27 1.31
0.22 0.28 0.36 0.36 0.40 0.42 0.45 0.39 0.43 0.53 0.68 0.78 0.75 0.71 0.79 0.92 0.90 0.91 0.99 1.02 1.02 0.91 0.91 0.96 0.98 1.04 1.13 1.09 1.09 1.11 1.09 1.07 1.10 1.15 1.20 1.20 1.19 1.11 1.03 1.10 1.14 1.18 1.33 1.22
0.21 0.30 0.32 0.35 0.35 0.39 0.34 0.41 0.45 0.48 0.58 0.46 0.69 0.47 0.70 0.83 0.86 0.90 0.97 1.06 1.06 0.98 1.04 0.99 0.96 1.01 1.05 1.02 1.07 1.03 1.08 1.10 1.20 1.27 1.15 1.03 0.96 0.92 0.95 0.97 1.08 1.15 1.12 0.95
0.18 0.24 0.28 0.29 0.31 0.39 0.36 0.44 0.43 0.42 0.45 0.53 0.58 0.51 0.57 0.82 0.73 0.75 0.84 1.00 1.12 1.16 1.18 1.13 1.02 0.97 1.00 0.99 0.99 1.01 1.09 1.19 1.26 1.30 1.24 1.08 0.97 1.01 1.04 1.04 1.07 1.02 0.89 0.88
0.17 0.26 0.28 0.29 0.33 0.39 0.45 0.42 0.41 0.41 0.40 0.36 0.46 0.49 0.48 0.57 0.63 0.63 0.80 0.93 1.07 1.17 1.25 1.30 1.31 1.21 1.11 1.00 0.97 1.06 1.08 1.16 1.25 1.22 1.23 1.12 1.02 0.94 0.87 1.01 1.05 0.96 0.90 0.85
0.14 0.19 0.23 0.27 0.30 0.39 0.40 0.37 0.28 0.27 0.31 0.32 0.45 0.48 0.48 0.53 0.59 0.61 0.65 0.80 0.96 1.08 1.18 1.20 1.22 1.24 1.19 1.06 0.95 1.03 1.07 1.09 1.16 1.17 1.16 1.10 1.06 0.95 0.87 0.93 0.99 0.98 0.95 0.91
0.11 0.09 0.18 0.24 0.27 0.30 0.34 0.35 0.27 0.21 0.22 0.28 0.39 0.40 0.41 0.52 0.62 0.68 0.76 0.80 0.92 0.96 1.06 1.07 1.11 1.18 1.23 1.23 1.14 1.06 1.12 1.11 1.16 1.20 1.13 1.14 1.04 0.88 0.84 0.90 0.94 0.98 0.96 0.94
0.12 0.11 0.16 0.22 0.29 0.31 0.32 0.29 0.34 0.26 0.29 0.24 0.29 0.33 0.38 0.47 0.48 0.61 0.66 0.76 0.83 0.88 0.97 1.01 1.11 1.22 1.33 1.38 1.29 1.16 1.13 1.17 1.13 1.15 1.15 1.10 1.05 1.04 0.94 0.94 0.99 0.97 1.01 1.06
0.16 0.12 0.15 0.19 0.29 0.30 0.32 0.36 0.27 0.26 0.19 0.18 0.23 0.26 0.28 0.37 0.43 0.55 0.61 0.67 0.76 0.83 0.90 0.97 1.09 1.05 1.17 1.21 1.30 1.30 1.27 1.27 1.26 1.15 1.19 1.10 1.13 1.17 1.18 1.15 1.02 1.05 1.11 1.10
0.19 0.17 0.14 0.20 0.21 0.22 0.29 0.27 0.28 0.27 0.25 0.19 0.16 0.19 0.36 0.39 0.45 0.50 0.59 0.66 0.71 0.75 0.79 0.87 0.98 1.04 1.05 1.19 1.27 1.31 1.35 1.39 1.34 1.28 1.23 1.20 1.13 1.15 1.25 1.16 1.07 1.07 1.09 1.05
0.25 0.18 0.15 0.17 0.22 0.27 0.29 0.25 0.26 0.21 0.19 0.23 0.21 0.22 0.42 0.46 0.49 0.62 0.62 0.68 0.73 0.74 0.79 0.89 0.99 1.03 1.08 1.08 1.14 1.20 1.31 1.37 1.44 1.47 1.33 1.30 1.25 1.19 1.28 1.22 1.15 1.05 0.96 1.02
0.29 0.20 0.15 0.17 0.20 0.26 0.25 0.26 0.27 0.28 0.27 0.23 0.21 0.25 0.44 0.47 0.51 0.61 0.64 0.69 0.70 0.76 0.81 0.86 0.99 1.02 1.04 1.06 1.09 1.13 1.25 1.32 1.43 1.48 1.47 1.41 1.35 1.29 1.34 1.29 1.21 1.18 1.03 1.02
0.34 0.24 0.17 0.14 0.17 0.24 0.23 0.26 0.30 0.30 0.25 0.25 0.27 0.30 0.37 0.41 0.47 0.54 0.59 0.68 0.69 0.69 0.72 0.78 0.84 0.94 1.01 1.06 1.10 1.14 1.22 1.36 1.43 1.39 1.46 1.44 1.42 1.36 1.40 1.36 1.29 1.22 1.14 1.09
0.36 0.25 0.24 0.16 0.22 0.25 0.26 0.27 0.32 0.31 0.30 0.27 0.30 0.32 0.36 0.43 0.47 0.50 0.54 0.61 0.63 0.60 0.63 0.67 0.75 0.83 0.92 0.98 1.07 1.17 1.24 1.30 1.41 1.46 1.46 1.47 1.53 1.46 1.53 1.41 1.39 1.22 1.17 1.11
0.44 0.28 0.27 0.21 0.22 0.26 0.27 0.30 0.33 0.34 0.35 0.36 0.36 0.34 0.43 0.48 0.53 0.52 0.54 0.56 0.56 0.59 0.61 0.67 0.76 0.83 0.84 0.89 0.98 1.06 1.18 1.31 1.33 1.33 1.46 1.59 1.87 1.67 1.61 1.49 1.38 1.21 1.17 1.10
0.47 0.34 0.28 0.21 0.24 0.26 0.27 0.34 0.36 0.37 0.38 0.39 0.34 0.37 0.46 0.48 0.50 0.51 0.54 0.55 0.57 0.62 0.69 0.73 0.82 0.88 0.87 0.88 0.94 1.02 1.14 1.38 1.42 1.48 1.46 1.82 1.69 1.71 1.65 1.62 1.50 1.33 1.03 1.11
0.52 0.40 0.32 0.22 0.24 0.22 0.32 0.42 0.41 0.42 0.47 0.47 0.48 0.45 0.45 0.50 0.53 0.57 0.60 0.58 0.64 0.68 0.73 0.84 0.81 0.73 0.78 0.83 0.88 0.97 1.06 1.15 1.31 1.44 1.51 1.62 1.80 1.65 1.59 1.55 1.44 1.22 1.10 1.13
0.62 0.46 0.33 0.25 0.23 0.31 0.42 0.49 0.48 0.40 0.45 0.56 0.48 0.51 0.55 0.56 0.59 0.59 0.67 0.70 0.72 0.76 0.78 0.74 0.71 0.74 0.76 0.80 0.86 0.90 0.99 1.09 1.14 1.21 1.35 1.67 1.69 1.65 1.47 1.44 1.29 1.18 1.16 1.19
0.65 0.56 0.39 0.33 0.26 0.27 0.44 0.62 0.65 0.58 0.39 0.61 0.55 0.57 0.57 0.61 0.48 0.58 0.74 0.77 0.79 0.80 0.82 0.79 0.80 0.80 0.83 0.81 0.94 0.90 0.92 1.00 1.11 1.34 1.50 1.59 1.64 1.54 1.43 1.44 1.28 1.28 1.33 1.32
0.57 0.53 0.45 0.39 0.36 0.47 0.65 0.70 0.72 0.41 0.44 0.61 0.62 0.64 0.59 0.59 0.67 0.74 0.80 0.81 0.88 0.91 0.87 0.88 0.89 0.83 0.84 0.94 0.94 0.90 0.93 0.99 1.24 1.40 1.49 1.54 1.61 1.53 1.54 1.51 1.47 1.48 1.54 1.44
0.55 0.51 0.52 0.51 0.41 0.40 0.74 0.70 0.55 0.68 0.77 0.72 0.72 0.70 0.68 0.74 0.77 0.81 0.85 0.87 0.89 0.89 0.88 0.94 0.98 0.93 1.09 1.09 1.05 0.98 0.95 1.11 1.31 1.43 1.44 1.51 1.57 1.53 1.54 1.49 1.45 1.30 1.37 1.61
0.54 0.66 0.63 0.66 0.61 0.79 0.87 0.79 0.86 0.85 0.76 0.77 0.75 0.80 0.80 0.78 0.80 0.87 0.90 0.91 0.93 0.92 0.90 0.99 0.92 0.94 1.02 1.11 1.16 1.09 1.15 1.19 1.29 1.36 1.41 1.49 1.46 1.46 1.46 1.38 1.32 1.21 1.20 1.19
0.69 0.83 0.71 0.72 0.79 0.84 0.85 0.87 0.91 0.92 0.88 0.88 0.86 0.83 0.83 0.82 0.85 0.85 0.87 0.90 0.96 0.96 0.93 0.98 0.92 0.87 0.94 1.09 1.25 1.30 1.32 1.33 1.38 1.42 1.46 1.50 1.48 1.41 1.41 1.33 1.25 1.11 1.13 1.15
0.69 0.72 0.68 0.75 0.86 0.91 0.89 0.91 0.94 0.95 1.00 0.96 0.94 0.93 0.91 0.90 0.86 0.88 0.95 1.01 1.03 1.05 1.05 1.11 1.01 1.08 1.15 1.25 1.35 1.48 1.57 1.63 1.58 1.55 1.53 1.41 1.38 1.31 1.27 1.21 1.11 1.11 1.13 1.24
0.78 0.71 0.61 0.60 0.82 0.77 0.88 0.93 0.93 0.89 0.89 0.89 0.88 0.87 0.89 0.88 0.85 0.91 0.93 1.10 1.16 1.09 1.11 1.05 1.06 1.09 1.19 1.30 1.29 1.43 1.60 1.57 1.48 1.38 1.27 1.32 1.27 1.17 1.08 0.95 0.92 1.11 1.17 1.12

GFSCGP_prec_pwat_015.txt.gz
Precipitable_Water
0.25 0.25 0.28 0.35 0.44 0.48 0.50 0.50 0.54 0.66 0.80 0.74 0.72 0.73 0.82 0.94 0.92 0.79 0.80 0.78 0.78 0.79 0.95 1.10 1.21 1.30 1.35 1.39 1.37 1.37 1.34 1.38 1.43 1.37 1.32 1.30 1.31 1.41 1.46 1.54 1.57 1.54 1.52 1.48
0.20 0.21 0.33 0.38 0.42 0.44 0.49 0.52 0.56 0.68 0.82 0.76 0.75 0.70 0.83 0.92 0.90 0.86 0.83 0.83 0.79 0.84 0.97 1.02 1.13 1.19 1.24 1.29 1.30 1.31 1.34 1.31 1.35 1.35 1.33 1.30 1.30 1.31 1.33 1.44 1.36 1.38 1.41 1.40
0.17 0.23 0.31 0.34 0.38 0.39 0.44 0.47 0.54 0.55 0.74 0.79 0.73 0.62 0.69 0.87 0.98 1.01 0.93 0.91 0.96 0.90 0.87 0.92 1.03 1.09 1.17 1.19 1.23 1.25 1.25 1.23 1.29 1.35 1.36 1.31 1.29 1.23 1.17 1.13 1.13 1.19 1.28 1.22
0.17 0.25 0.27 0.31 0.34 0.40 0.34 0.46 0.58 0.62 0.60 0.49 0.73 0.45 0.63 0.76 0.81 0.89 0.88 0.88 0.86 0.90 0.94 0.93 0.95 1.00 1.04 1.07 1.23 1.28 1.29 1.23 1.24 1.35 1.29 1.22 1.13 1.08 1.16 1.09 1.08 1.16 1.16 1.16
0.19 0.19 0.25 0.27 0.33 0.43 0.39 0.46 0.47 0.58 0.60 0.57 0.56 0.51 0.54 0.72 0.69 0.75 0.83 0.84 0.88 0.88 0.89 0.91 0.93 0.97 1.00 1.06 1.14 1.25 1.28 1.23 1.23 1.28 1.30 1.23 1.17 1.21 1.21 1.13 1.12 1.19 1.22 1.25
0.24 0.24 0.24 0.29 0.39 0.43 0.49 0.46 0.45 0.57 0.59 0.38 0.44 0.44 0.42 0.51 0.57 0.67 0.79 0.89 0.87 0.93 0.92 0.92 1.01 1.11 1.10 1.13 1.12 1.17 1.18 1.16 1.21 1.26 1.28 1.22 1.16 1.17 1.12 1.06 1.05 1.13 1.16 1.23
0.24 0.22 0.26 0.27 0.33 0.43 0.44 0.40 0.32 0.31 0.37 0.31 0.40 0.41 0.40 0.48 0.51 0.57 0.67 0.81 0.90 0.94 1.01 0.95 0.94 0.98 1.02 1.03 1.03 1.08 1.09 1.05 1.14 1.19 1.25 1.24 1.22 1.25 1.16 1.09 1.06 1.04 1.06 1.14
0.17 0.17 0.21 0.28 0.29 0.35 0.38 0.38 0.32 0.25 0.27 0.31 0.41 0.31 0.38 0.50 0.53 0.59 0.71 0.80 0.93 0.94 0.98 1.03 1.02 1.09 1.10 1.02 1.01 1.03 1.03 1.03 1.07 1.12 1.20 1.28 1.30 1.27 1.21 1.19 1.19 1.17 1.19 1.19
0.20 0.18 0.25 0.26 0.33 0.36 0.37 0.35 0.42 0.35 0.33 0.30 0.34 0.39 0.45 0.50 0.47 0.50 0.56 0.71 0.78 0.85 0.94 0.98 1.09 1.13 1.17 1.18 1.08 1.03 1.06 1.03 1.02 1.10 1.17 1.27 1.35 1.36 1.21 1.16 1.20 1.13 1.25 1.28
0.26 0.15 0.21 0.24 0.30 0.36 0.35 0.41 0.33 0.34 0.26 0.24 0.28 0.28 0.28 0.35 0.38 0.43 0.49 0.54 0.65 0.78 0.90 0.94 1.02 1.06 1.15 1.17 1.15 1.27 1.26 1.09 1.04 1.10 1.17 1.22 1.30 1.30 1.34 1.31 1.18 1.09 1.14 1.28
0.37 0.27 0.17 0.21 0.21 0.25 0.32 0.31 0.36 0.37 0.33 0.25 0.25 0.26 0.36 0.35 0.37 0.37 0.40 0.45 0.54 0.69 0.78 0.85 0.93 1.01 1.08 1.17 1.19 1.25 1.33 1.37 1.25 1.09 1.16 1.23 1.27 1.41 1.31 1.34 1.19 1.06 1.16 1.19
0.36 0.32 0.24 0.20 0.21 0.23 0.27 0.31 0.34 0.29 0.28 0.28 0.27 0.27 0.36 0.38 0.39 0.39 0.37 0.42 0.55 0.66 0.74 0.83 0.90 0.98 1.02 1.08 1.13 1.20 1.29 1.34 1.40 1.39 1.26 1.22 1.27 1.25 1.27 1.32 1.27 1.18 1.10 1.14
0.37 0.32 0.26 0.23 0.25 0.24 0.20 0.23 0.29 0.33 0.33 0.29 0.23 0.24 0.38 0.40 0.39 0.39 0.39 0.44 0.56 0.66 0.72 0.79 0.85 0.89 0.95 1.04 1.08 1.05 1.19 1.25 1.40 1.53 1.54 1.40 1.30 1.30 1.27 1.33 1.32 1.28 1.31 1.32
0.45 0.38 0.31 0.23 0.22 0.23 0.18 0.19 0.22 0.24 0.24 0.26 0.26 0.26 0.30 0.36 0.36 0.37 0.37 0.44 0.56 0.67 0.70 0.76 0.79 0.83 0.91 0.92 1.00 1.07 1.17 1.34 1.47 1.50 1.54 1.54 1.47 1.42 1.47 1.45 1.54 1.46 1.42 1.41
0.53 0.38 0.41 0.35 0.32 0.28 0.22 0.16 0.17 0.18 0.19 0.20 0.23 0.24 0.26 0.33 0.37 0.38 0.39 0.49 0.54 0.67 0.69 0.72 0.72 0.77 0.87 0.95 1.00 1.10 1.23 1.32 1.39 1.43 1.51 1.53 1.58 1.59 1.61 1.61 1.68 1.59 1.47 1.55
0.58 0.41 0.42 0.32 0.34 0.31 0.24 0.20 0.19 0.18 0.18 0.21 0.21 0.25 0.30 0.35 0.41 0.40 0.41 0.51 0.52 0.61 0.64 0.68 0.73 0.75 0.78 0.89 0.98 1.09 1.18 1.25 1.37 1.38 1.42 1.51 1.56 1.59 1.66 1.75 1.67 1.67 1.69 1.75
0.58 0.52 0.46 0.35 0.38 0.32 0.26 0.28 0.24 0.21 0.23 0.22 0.19 0.24 0.30 0.30 0.35 0.37 0.40 0.48 0.52 0.58 0.60 0.65 0.69 0.74 0.83 0.94 1.01 1.03 1.12 1.22 1.24 1.27 1.30 1.35 1.43 1.49 1.61 1.72 1.69 1.69 1.63 1.70
0.56 0.54 0.52 0.44 0.42 0.28 0.26 0.31 0.28 0.23 0.21 0.26 0.25 0.25 0.28 0.31 0.38 0.44 0.51 0.52 0.55 0.61 0.66 0.71 0.74 0.81 0.91 0.99 0.99 1.07 1.10 1.07 1.02 1.10 1.15 1.22 1.26 1.30 1.41 1.50 1.53 1.53 1.57 1.53
0.64 0.57 0.50 0.47 0.44 0.40 0.34 0.36 0.30 0.24 0.21 0.27 0.25 0.27 0.32 0.38 0.46 0.49 0.56 0.57 0.61 0.66 0.74 0.75 0.87 0.96 0.98 0.88 0.94 0.94 0.91 0.90 0.99 1.09 1.21 1.31 1.41 1.47 1.49 1.41 1.42 1.43 1.45 1.66
0.64 0.67 0.56 0.58 0.44 0.34 0.44 0.55 0.59 0.46 0.22 0.35 0.35 0.34 0.36 0.43 0.39 0.48 0.60 0.63 0.66 0.70 0.78 0.82 0.91 0.90 0.84 0.84 0.87 0.87 0.90 0.99 1.04 1.14 1.22 1.36 1.44 1.45 1.49 1.51 1.47 1.46 1.56 1.60
0.48 0.52 0.49 0.61 0.53 0.50 0.64 0.69 0.70 0.31 0.27 0.42 0.44 0.49 0.50 0.49 0.58 0.67 0.72 0.74 0.79 0.80 0.85 0.89 0.88 0.87 0.91 0.94 0.94 0.95 1.01 1.03 1.21 1.34 1.44 1.50 1.49 1.48 1.45 1.47 1.49 1.51 1.58 1.59
0.45 0.46 0.49 0.59 0.57 0.46 0.80 0.73 0.56 0.59 0.59 0.56 0.57 0.59 0.64 0.73 0.76 0.77 0.80 0.81 0.83 0.83 0.87 0.90 0.90 0.93 0.96 0.99 1.00 0.97 1.02 1.20 1.34 1.41 1.35 1.42 1.46 1.46 1.41 1.41 1.49 1.57 1.54 1.54
0.46 0.56 0.54 0.62 0.71 0.88 0.90 0.84 0.89 0.89 0.76 0.74 0.74 0.74 0.74 0.76 0.78 0.82 0.81 0.84 0.86 0.90 0.91 0.98 0.94 0.93 0.98 1.04 1.11 1.03 1.08 1.23 1.29 1.31 1.34 1.38 1.46 1.49 1.52 1.45 1.44 1.42 1.52 1.48
0.60 0.66 0.53 0.59 0.84 0.89 0.90 0.93 0.94 0.89 0.83 0.84 0.85 0.83 0.78 0.79 0.86 0.92 0.91 0.93 0.96 1.01 0.97 1.00 0.97 0.99 1.06 1.20 1.23 1.23 1.26 1.41 1.32 1.36 1.39 1.44 1.46 1.44 1.49 1.44 1.38 1.36 1.35 1.32
0.68 0.70 0.60 0.61 0.75 0.96 1.02 0.98 0.95 0.93 0.91 0.87 0.87 0.85 0.82 0.85 0.84 0.94 0.99 1.02 1.04 1.05 1.05 1.04 1.02 1.00 1.01 1.09 1.17 1.28 1.33 1.41 1.33 1.37 1.39 1.39 1.41 1.42 1.33 1.30 1.28 1.30 1.28 1.24
0.79 0.73 0.65 0.64 0.85 0.91 0.95 1.00 1.05 1.01 0.96 0.94 0.92 0.89 0.93 0.93 0.88 0.92 0.92 0.97 0.99 1.02 1.09 1.09 1.09 1.08 1.08 1.09 1.07 1.15 1.26 1.30 1.29 1.29 1.30 1.23 1.20 1.19 1.16 1.11 1.10 1.15 1.14 1.16